Regional Weather Roundup
Issued by NWS

Home | Current Version | Previous Version | Graphics & Text | Print | Product List | Glossary On
Versions: 1 2 3 4 5 6 7 8 9 10 11 12 13 14 15 16 17 18 19 20 21 22 23 24 25 26 27 28 29 30 31 32 33 34 35 36 37 38 39 40 41 42 43 44 45 46 47 48 49 50
000
ASUS43 KLOT 230604
RWRIL

ILLINOIS REGIONAL WEATHER ROUNDUP
NATIONAL WEATHER SERVICE CHICAGO/ROMEOVILLE IL
100 AM CDT FRI JUN 23 2017

NOTE: "FAIR" INDICATES FEW OR NO CLOUDS BELOW 12,000 FEET WITH NO
SIGNIFICANT WEATHER AND/OR OBSTRUCTIONS TO VISIBILITY.

* THESE STATIONS ARE NOT UNDER NWS QUALITY CONTROL. THEY ALSO MAY NOT
  REPORT WEATHER SUCH AS PRECIPITATION OR FOG.

ILZ001-002-007-009-015-016-024-230700-
NORTHWEST ILLINOIS

CITY           SKY/WX    TMP DP  RH WIND       PRES   REMARKS
MOLINE         CLEAR     76  71  85 S12       29.64F
6HR MIN TEMP:  74; 6HR MAX TEMP:  83;

STERLING*      PTCLDY    75  72  90 VRB7      29.66F
SAVANNA*       MOCLDY    75  72  89 S6        29.64F
$$

ILZ003-004-008-010-011-017-018-230700-
NORTH CENTRAL ILLINOIS

CITY           SKY/WX    TMP DP  RH WIND       PRES   REMARKS
ROCKFORD       CLOUDY    77  72  84 S14       29.67F
6HR MIN TEMP:  76; 6HR MAX TEMP:  84;

FREEPORT*      CLEAR     74  70  89 S14       29.67S
ROCHELLE*      MOCLDY    73  72  94 S15       29.67F
DE KALB*       CLOUDY    74  72  93 S17       29.69F
PERU*          CLOUDY    74  71  91 S10       29.71F
$$

ILZ005-006-012>014-019>023-230700-
NORTHEAST ILLINOIS

CITY           SKY/WX    TMP DP  RH WIND       PRES   REMARKS
CHICAGO-OHARE  CLOUDY    77  69  76 SW15G23   29.67F
6HR MIN TEMP:  77; 6HR MAX TEMP:  85;

CHICAGO-MIDWAY CLOUDY    76  71  85 S14G23    29.68F
6HR MIN TEMP:  76; 6HR MAX TEMP:  84;

AURORA         CLOUDY    76  72  87 S14       29.70F
6HR MIN TEMP:  76; 6HR MAX TEMP:  83;

LANSING*       CLOUDY    74  69  83 SW13      29.72F
JOLIET*        CLOUDY    75  73  93 S10       29.71F
WAUKEGAN       CLOUDY    74  73  97 SW16      29.65F
6HR MIN TEMP:  74; 6HR MAX TEMP:  83; 6HR PCP:  0.04;

DUPAGE AIRPORT CLOUDY    75  72  90 S15G22    29.69F
6HR MIN TEMP:  75; 6HR MAX TEMP:  82;

WHEELING       CLOUDY    76  72  87 SW14G21   29.68F
6HR MIN TEMP:  75; 6HR MAX TEMP:  85; 6HR PCP:  0.06;

MORRIS*        CLOUDY    75  71  88 S13       29.70F
ROMEOVILLE*    CLOUDY    74  69  83 SW13G21   29.71F
NORTHERLY ISL    N/A     75  68  78 S12         N/A
$$

LMZ740>746-230700-
SOUTHERN LAKE MICHIGAN

STATION/POSITION SKY/WX   TEMP    WIND        PRES    VSBY  WAVE
                          AIR SEA DIR/SP/G                  HT/PER
                          (F)     (DEG/KT/KT) (MB)    (MI)  (FT/S)
SOUTHERN BUOY              68 61  200/ 17/ 21 1004.2          2/ 4
WILMETTE HARBOR            72 64  200/ 16/ 19   N/A           2/ 3
HARRISON CRIB              74     200/ 25/ 27   N/A
BURNHAM HARBOR             75                   N/A
CALUMET HARBOR             74     190/ 10/ 17 1005.5F
BURNS HARBOR               74     190/ 14/ 17 1006.8F
MICHIGAN CITY              73     180/ 10/ 15   N/A
MICHIGAN CITY 6N           72 68  190/ 12/ 16   N/A           1/ 2
ST. JOSEPH                 72 69  200/ 14/ 19 1005.5F         3/ 4
$$

ILZ025>027-034>036-040-047-049-050-058-095>099-230700-
WEST-CENTRAL ILLINOIS

CITY           SKY/WX    TMP DP  RH WIND       PRES   REMARKS
QUINCY         CLOUDY    77  72  84 S7        29.72R
GALESBURG*     PTCLDY    74  71  91 S5        29.71F
MACOMB*        CLOUDY    74  72  92 S7        29.74S
JACKSONVILLE*  PTCLDY    75  73  93 S5        29.73R
PITTSFIELD*    CLOUDY    76  73  92 S5        29.73S
$$

ILZ028>032-037-038-041>044-048-051>054-059>061-230700-
CENTRAL ILLINOIS

CITY           SKY/WX    TMP DP  RH WIND       PRES   REMARKS
PONTIAC        CLOUDY    75  74  98 S7        29.73F
BLOOMINGTON    CLOUDY    74  72  93 SW12      29.75F
DECATUR        CLOUDY    74  72  93 S10       29.74F
PEORIA         CLOUDY    76  74  93 S9        29.72F
6HR MIN TEMP:  74; 6HR MAX TEMP:  83;

LACON*         CLOUDY    75  73  93 SW7       29.70S
LINCOLN*       CLOUDY    76  75  94 S3        29.74S
SPRINGFIELD    CLOUDY    77  75  93 S8        29.73S
6HR MIN TEMP:  77; 6HR MAX TEMP:  81;

TAYLORVILLE    CLOUDY    73  73  98 S10G18    29.74S
6HR MIN TEMP:  73; 6HR MAX TEMP:  75;

$$

ILZ033-039-045-046-055>057-062-063-230700-
EAST-CENTRAL ILLINOIS

CITY           SKY/WX    TMP DP  RH WIND       PRES   REMARKS
CHAMPAIGN      CLOUDY    74  71  91 S10       29.75F
RANTOUL*       CLOUDY    75  73  94 SW6       29.76S
MATTOON        CLOUDY    74  74 100 S9        29.75F
PARIS*         CLOUDY    73  73  97 S9        29.77F
$$

ILZ079-100>102-230700-
SOUTHWEST ILLINOIS

CITY           SKY/WX    TMP DP  RH WIND       PRES   REMARKS
ALTON          CLOUDY    74  73  96 SE5       29.73F
BELLEVILLE     MOCLDY    76  74  94 S5        29.74F
CAHOKIA*       CLOUDY    78  74  87 S5        29.72F HX  81
SPARTA*        MOCLDY    76  73  90 S6        29.75F
$$

ILZ064>066-069>071-074>076-080>082-084>086-088>090-092>094-230700-
SOUTH-CENTRAL ILLINOIS

CITY           SKY/WX    TMP DP  RH WIND       PRES   REMARKS
CARBONDALE     CLOUDY    77  76  96 S6        29.75F
6HR MIN TEMP:  76; 6HR MAX TEMP:  81;

CAIRO*         LGT RAIN  76  75  94 S8        29.76F
EFFINGHAM*     CLOUDY    75  74  99 SE5       29.77F
MARION         CLOUDY    77  77 100 SW5       29.77S
MT. VERNON     CLOUDY    76  74  93 S8        29.75F
CENTRALIA*     CLOUDY    76  75  97 S7        29.74F
SALEM*         CLOUDY    76  74  91 S5        29.75F
METROPOLIS*    CLOUDY    77  74  90 CALM      29.78F
$$

ILZ067-068-072-073-078-083-087-091-230700-
SOUTHEAST ILLINOIS

CITY           SKY/WX    TMP DP  RH WIND       PRES   REMARKS
LAWRENCEVILLE  CLOUDY    74  73  97 S9        29.77F
FLORA*         CLOUDY   N/A N/A N/A S8        29.76F
FAIRFIELD*     MOCLDY    76  75  98 SE5       29.75F
HARRISBURG*    CLOUDY    78  74  90 S7        29.77F
ROBINSON*      CLOUDY    73  73  97 S10       29.77F
CARMI*         CLOUDY    75  74  97 S7        29.76F
$$

ABBREVIATIONS USED IN REMARKS
   TC - TEMPERATURE IN CELSIUS
  WCI - WIND CHILL INDEX
   HX - HEAT INDEX
  VSB - VISIBILITY
$$




USA.gov is the U.S. government's official web portal to all federal, state and local government web resources and services.